SL-16 DEB, 39888

Orbit data source: Space-Track

SL-16 DEB, 39888 is space debris in LEO originally from a launch on Fri, 26 Mar 1993 UTC launched from the Tyuratam Missile And Space Complex (TTMTR). Debris objects in space refer to the collection of defunct objects orbiting the Earth. Examples of debris include non-operational satellites, rocket bodies, and fragments generated from explosions, collisions, or faulty payload assembly.

Loading next visibility...
Identifier
39888, 1993-016BN
Orbit
LEO
Country
Flag of CISCIS
Related business
Manufacturer
Unknown
Mission
Spacecraft
Bus & Motor
Unknown
Mass
Unknown
Launch date (UTC)
1993-03-26 (33 years ago)
Launch vehicle
Unknown
Launch site
Tyuratam Missile And Space Complex (TTMTR)
Object type
Payload
Rocket body
Debris
Shape & HBR
Unknown shape, 1.1 m
Radar Cross Section
Medium (>0.1 m² and <1 m²)

Expand to show TLE details & history
Last TLE update: 1 month ago

TLE from 1 month ago
0 SL-16 DEB
1 39888U 93016BN  26217.93315010  .00003508  00000-0  95015-3 0  9994
2 39888  70.9502 323.3858 0071767 287.1247  72.2042 14.46879019630984
Epoch: 2026-08-05T22:23Z
TLE epoch observation values (Epoch: 2026-08-05T22:23:44.168Z)
Latitude
0.00003°
Longitude
32.97133°
Altitude
723.021 km
Speed
7.502 km/s
True Right ascension
21h 33m 32s
True Declination
0° 00' 00"
Sunlit
Object was in full shadow at epoch
Visualization orbit readout
Latitude
Unknown
Longitude
Unknown
Altitude
Unknown
Speed
Unknown
Apparent Right ascension
Unknown
Apparent Declination
Unknown
Sunlit
N/A
Visualization observer readout
Local Sidereal Time
08:48:11
Azimuth
Unknown
Elevation
Unknown
Doppler factor
Unknown
Orbital elements
Apogee altitude
784.799 km
Perigee altitude
682.719 km
Semi-major axis
7,111.896 km
Eccentricity
0.00718
Inclination
70.9502°
RAAN
323.3858°
Arg. of periapsis
287.1247°
True anomaly
72.98937°
Mean anomaly
72.2042°
Eccentric anomaly
72.59657°
Mean motion
3.6188 °/min
Orbital period
99.48 mins
BSTAR
0.00095015
Loading maneuver chart data...
Computing Atmospheric mass density...
Loading historical data...
Loading historical data...
Loading historical data...
Loading historical data...
Loading historical data...
Loading historical data...
Loading historical data...

Documentation

Showing up to 5 results
|